Lincoln County, Oregon, United States
Lat: 44.65N, Lon: 123.85W
Wx Zone: ORZ004
Local Info
Past Weather Observations for Saturday, April 19, 2014

NOTE: This archive is for the closest National Weather Service station to Lincoln County. Information may differ from the station used for current weather conditions.

Time Weather Temperature Dewpoint Humidity Pressure Winds Precip Visibility
23:55
Clear
Fog And Mist
45°F / 7°C 43°F / 6°C 93% 30.3 in
(1026 mb)
Calm - 5SM
23:35
Partly Cloudy
Fog And Mist
45°F / 7°C 45°F / 7°C 100% 30.3 in
(1026 mb)
Calm - 5SM
23:15
Mostly Cloudy
Fog And Mist
45°F / 7°C 45°F / 7°C 100% 30.3 in
(1026 mb)
S 3.5 mph
(S 6 kph)
- 5SM
22:55
Mostly Cloudy
46°F / 8°C 45°F / 7°C 93% 30.3 in
(1026 mb)
S 4.6 mph
(S 7 kph)
- 7SM
22:35
Partly Cloudy
Fog And Mist
46°F / 8°C 45°F / 7°C 93% 30.27 in
(1025 mb)
SSE 4.6 mph
(SSE 7 kph)
- 5SM
22:15
Partly Cloudy
Fog And Mist
46°F / 8°C 45°F / 7°C 93% 30.27 in
(1025 mb)
SSE 4.6 mph
(SSE 7 kph)
- 5SM
21:55
Mostly Cloudy
Fog And Mist
46°F / 8°C 46°F / 8°C 100% 30.27 in
(1025 mb)
S 4.6 mph
(S 7 kph)
- 4SM
21:35
Overcast
Fog And Mist
48°F / 9°C 46°F / 8°C 94% 30.27 in
(1025 mb)
S 5.8 mph
(S 9 kph)
- 5SM
21:15
Overcast
Fog And Mist
48°F / 9°C 46°F / 8°C 94% 30.27 in
(1025 mb)
S 5.8 mph
(S 9 kph)
- 5SM
20:55
Overcast
50°F / 10°C 46°F / 8°C 88% 30.27 in
(1025 mb)
S 5.8 mph
(S 9 kph)
- 7SM
20:35
Overcast
50°F / 10°C 46°F / 8°C 88% 30.27 in
(1025 mb)
S 5.8 mph
(S 9 kph)
- 7SM
20:15
Overcast
50°F / 10°C 46°F / 8°C 88% 30.24 in
(1024 mb)
S 4.6 mph
(S 7 kph)
- 7SM
19:55
Overcast
50°F / 10°C 46°F / 8°C 88% 30.24 in
(1024 mb)
S 5.8 mph
(S 9 kph)
- 7SM
19:35
Overcast
Fog And Mist
50°F / 10°C 46°F / 8°C 88% 30.24 in
(1024 mb)
S 5.8 mph
(S 9 kph)
- 5SM
19:15
Overcast
Fog And Mist
52°F / 11°C 46°F / 8°C 82% 30.24 in
(1024 mb)
SSE 6.9 mph
(SSE 11 kph)
- 5SM
18:55
Overcast
Fog And Mist
52°F / 11°C 46°F / 8°C 82% 30.21 in
(1023 mb)
SW 8.1 mph
(SW 13 kph)
- 5SM
18:35
Overcast
Fog And Mist
52°F / 11°C 46°F / 8°C 82% 30.21 in
(1023 mb)
SW 9.2 mph
(SW 15 kph)
- 5SM
18:15
Overcast
Hazy
52°F / 11°C 46°F / 8°C 82% 30.21 in
(1023 mb)
SW 9.2 mph
(SW 15 kph)
- 5SM
17:55
Overcast
Fog And Mist
52°F / 11°C 48°F / 9°C 88% 30.21 in
(1023 mb)
SW 11.5 mph
(SW 19 kph)
- 5SM
17:35
Overcast
Fog And Mist
54°F / 12°C 50°F / 10°C 88% 30.21 in
(1023 mb)
SW 12.7 mph
(SW 20 kph)
- 4SM
17:15
Mostly Cloudy
Hazy
54°F / 12°C 50°F / 10°C 88% 30.21 in
(1023 mb)
SW 13.8 mph
(SW 22 kph)
- 4SM
16:55
Overcast
Hazy
54°F / 12°C 50°F / 10°C 88% 30.21 in
(1023 mb)
SW 15 mph
(SW 24 kph)
- 4SM
16:35
Overcast
Fog And Mist
54°F / 12°C 50°F / 10°C 88% 30.18 in
(1022 mb)
SW 13.8 mph
(SW 22 kph)
- 4SM
16:15
Overcast
Fog And Mist
54°F / 12°C 50°F / 10°C 88% 30.18 in
(1022 mb)
SW 16.1 mph
(SW 26 kph)
- 4SM
15:55
Mostly Cloudy
Fog And Mist
54°F / 12°C 50°F / 10°C 88% 30.18 in
(1022 mb)
SW 15 mph
(SW 24 kph)
- 4SM
15:35
Mostly Cloudy
Hazy
55°F / 13°C 50°F / 10°C 82% 30.15 in
(1021 mb)
SW 17.3 mph
(SW 28 kph)
- 4SM
15:15
Overcast
Fog And Mist
55°F / 13°C 52°F / 11°C 88% 30.15 in
(1021 mb)
SW 16.1 mph
(SW 26 kph)
- 4SM
14:55
Overcast
Fog And Mist
55°F / 13°C 52°F / 11°C 88% 30.15 in
(1021 mb)
SW 15 mph
(SW 24 kph)
0.02 in
(0.51 mm)
4SM
14:35
Overcast
54°F / 12°C 46°F / 8°C 77% 30.15 in
(1021 mb)
SW 13.8 mph
(SW 22 kph)
0.02 in
(0.51 mm)
7SM
14:15
Overcast
Light Rain
50°F / 10°C 45°F / 7°C 82% 30.12 in
(1020 mb)
SW 11.5 mph
(SW 19 kph)
0.02 in
(0.51 mm)
5SM
13:55
Overcast
Hazy
55°F / 13°C 50°F / 10°C 82% 30.12 in
(1020 mb)
SW 17.3 mph
(SW 28 kph)
- 4SM
13:35
Overcast
Hazy
55°F / 13°C 52°F / 11°C 88% 30.12 in
(1020 mb)
SW 21.9 mph
(SW 35 kph)
- 4SM
13:15
Overcast
Hazy
55°F / 13°C 52°F / 11°C 88% 30.09 in
(1019 mb)
SW 17.3 mph
(SW 28 kph)
- 4SM
12:55
Overcast
Hazy
55°F / 13°C 52°F / 11°C 88% 30.09 in
(1019 mb)
SSE 17.3 mph
(SSE 28 kph)
- 4SM
12:35
Fair
55°F / 13°C 52°F / 11°C 88% 30.06 in
(1018 mb)
SW 16.1 mph
(SW 26 kph)
-
12:15
Fair
55°F / 13°C 52°F / 11°C 88% 30.06 in
(1018 mb)
SSE 17.3 mph
(SSE 28 kph)
-
11:55
Fair
55°F / 13°C 52°F / 11°C 88% 30.04 in
(1017 mb)
SSE 20.7 mph
(SSE 33 kph)
-
11:35
Overcast
Fog And Mist
52°F / 11°C 50°F / 10°C 94% 30.04 in
(1017 mb)
SSE 21.9 mph
(SSE 35 kph)
- 5SM
11:15
Overcast
Fog And Mist
52°F / 11°C 50°F / 10°C 94% 30.04 in
(1017 mb)
SSE 21.9 mph
(SSE 35 kph)
- 5SM
10:55
Overcast
Fog And Mist
52°F / 11°C 50°F / 10°C 94% 30.01 in
(1016 mb)
SSE 23 mph
(SSE 37 kph)
- 5SM
10:35
Overcast
Fog And Mist
52°F / 11°C 48°F / 9°C 88% 30.01 in
(1016 mb)
SSE 21.9 mph
(SSE 35 kph)
- 5SM
10:15
Overcast
50°F / 10°C 48°F / 9°C 94% 29.98 in
(1015 mb)
S 26.5 mph
(S 43 kph)
- 7SM
09:55
Overcast
50°F / 10°C 46°F / 8°C 88% 29.98 in
(1015 mb)
S 24.2 mph
(S 39 kph)
0.01 in
(0.25 mm)
7SM
09:35
Overcast
46°F / 8°C 46°F / 8°C 100% 29.95 in
(1014 mb)
S 17.3 mph
(S 28 kph)
0.01 in
(0.25 mm)
10SM
09:15
Overcast
Light Rain
46°F / 8°C 45°F / 7°C 93% 29.95 in
(1014 mb)
S 20.7 mph
(S 33 kph)
0.01 in
(0.25 mm)
10SM
08:55
Overcast
Light Rain
45°F / 7°C 45°F / 7°C 100% 29.95 in
(1014 mb)
S 18.4 mph
(S 30 kph)
- 2SM
08:35
Overcast
Drizzle
46°F / 8°C 43°F / 6°C 87% 29.92 in
(1013 mb)
S 19.6 mph
(S 32 kph)
- 3SM
08:15
Overcast
Light Rain
46°F / 8°C 43°F / 6°C 87% 29.92 in
(1013 mb)
S 20.7 mph
(S 33 kph)
- 5SM
07:55
Overcast
Light Rain
46°F / 8°C 43°F / 6°C 87% 29.89 in
(1012 mb)
S 23 mph
(S 37 kph)
0.01 in
(0.25 mm)
3SM
07:35
Overcast
Light Rain
50°F / 10°C 37°F / 3°C 62% 29.89 in
(1012 mb)
SSE 23 mph
(SSE 37 kph)
- 7SM
07:15
Overcast
50°F / 10°C 37°F / 3°C 62% 29.89 in
(1012 mb)
S 19.6 mph
(S 32 kph)
- 10SM
06:55
Overcast
48°F / 9°C 36°F / 2°C 62% 29.89 in
(1012 mb)
S 6.9 mph
(S 11 kph)
- 10SM
06:35
Overcast
48°F / 9°C 37°F / 3°C 66% 29.89 in
(1012 mb)
SSE 8.1 mph
(SSE 13 kph)
- 10SM
06:15
Overcast
46°F / 8°C 37°F / 3°C 71% N/A SSE 8.1 mph
(SSE 13 kph)
- 10SM
05:55
Overcast
46°F / 8°C 39°F / 4°C 76% N/A SSE 9.2 mph
(SSE 15 kph)
-
05:35
Mostly Cloudy
45°F / 7°C 41°F / 5°C 87% 29.89 in
(1012 mb)
S 4.6 mph
(S 7 kph)
-
05:15
Partly Cloudy
45°F / 7°C 39°F / 4°C 81% 29.89 in
(1012 mb)
Calm -
04:55
Partly Cloudy
46°F / 8°C 41°F / 5°C 82% 29.89 in
(1012 mb)
SSE 3.5 mph
(SSE 6 kph)
-
04:35
Partly Cloudy
46°F / 8°C 41°F / 5°C 82% N/A SSE 4.6 mph
(SSE 7 kph)
-
04:15
Mostly Cloudy
46°F / 8°C 43°F / 6°C 87% 29.89 in
(1012 mb)
S 11.5 mph
(S 19 kph)
-
03:55
Partly Cloudy
46°F / 8°C 43°F / 6°C 87% 29.89 in
(1012 mb)
S 10.4 mph
(S 17 kph)
- 10SM
03:35
Clear
46°F / 8°C 45°F / 7°C 93% 29.89 in
(1012 mb)
S 12.7 mph
(S 20 kph)
- 10SM
03:15
Clear
48°F / 9°C 45°F / 7°C 87% 29.92 in
(1013 mb)
S 16.1 mph
(S 26 kph)
- 10SM
02:55
Clear
48°F / 9°C 45°F / 7°C 87% 29.89 in
(1012 mb)
S 15 mph
(S 24 kph)
- 10SM
02:35
Clear
46°F / 8°C 45°F / 7°C 93% 29.89 in
(1012 mb)
S 12.7 mph
(S 20 kph)
- 7SM
02:15
Clear
46°F / 8°C 45°F / 7°C 93% 29.89 in
(1012 mb)
SSE 13.8 mph
(SSE 22 kph)
- 7SM
01:55
Partly Cloudy
48°F / 9°C 46°F / 8°C 94% 29.89 in
(1012 mb)
S 12.7 mph
(S 20 kph)
- 7SM
01:35
Partly Cloudy
48°F / 9°C 46°F / 8°C 94% 29.89 in
(1012 mb)
S 16.1 mph
(S 26 kph)
- 7SM
01:15
Clear
48°F / 9°C 45°F / 7°C 87% 29.89 in
(1012 mb)
S 15 mph
(S 24 kph)
- 7SM
00:55
Clear
46°F / 8°C 41°F / 5°C 82% N/A S 9.2 mph
(S 15 kph)
- 10SM
00:35
Clear
45°F / 7°C 37°F / 3°C 76% 29.89 in
(1012 mb)
SW 9.2 mph
(SW 15 kph)
- 10SM
00:15
Clear
46°F / 8°C 39°F / 4°C 76% 29.89 in
(1012 mb)
ESE 8.1 mph
(ESE 13 kph)
- 10SM
Time Weather Temperature Dewpoint Humidity Pressure Winds Precip Visibility


Weather for websites

WeatherForYou.com, LLC is not responsible for any damages or problems caused by this service. Current weather conditions are obtained from the closest station including government and personal stations which may have varying degrees of accuracy. Weather forecasts are derived from the NOAA NDFD. Like all things, this site belongs to Jesus Christ... He just trusts me to maintain it. If you have any questions or comments email webmaster@weatherforyou.com

Copyright © 2014, WeatherForYou.com LLC. All rights reserved.